Macon, GA

2:58 AM EST on February 23, 2017 (GMT -0500)
Middle Georgia Regional

Weather History for KMCN - February, 2013

Change the Weather History Date:

Monday, February 25, 2013

  Actual Average Record
Temperature  
Mean Temperature 47 °F 52 °F  
Max Temperature 51 °F 65 °F 82 °F (1930)
Min Temperature 43 °F 40 °F 14 °F (1967)
Degree Days  
Heating Degree Days 18 13  
Month to date heating degree days 420 383  
Since 1 July heating degree days 1634 1888  
Cooling Degree Days 0 0  
Month to date cooling degree days 0 0  
Year to date cooling degree days 18 1  
Moisture  
Dew Point 45 °F    
Average Humidity 90    
Maximum Humidity 100    
Minimum Humidity 80    
Precipitation  
Precipitation 0.83 in 0.15 in 4.67 in (1919)
Month to date precipitation 11.64 3.90  
Year to date precipitation 13.69 8.14  
Snow  
Snow 0.00 in 0.00 in 0.00 in (2002)
Month to date snowfall 0.0 0.0  
Since 1 July snowfall 0.0 0.5  
Snow Depth -    
Sea Level Pressure  
Sea Level Pressure 29.93 in    
Wind  
Wind Speed 8 mph (ENE)    
Max Wind Speed 21 mph    
Max Gust Speed 24 mph    
Visibility 7 miles    
Events Rain    
T = Trace of Precipitation, MM = Missing Value Source: NWS Daily Summary

Daily Weather History Graph

Daily Weather History Graph

Search for Another Location

Airport or City:

Trip Planner

Search our weather history database for the weather conditions in past years. The results will help you decide how hot, cold, wet, or windy it might be!

Date:

Astronomy

Feb. 25, 2013 Rise Set
Actual Time 7:06 AM EST 6:28 PM EST
Civil Twilight 6:41 AM EST 6:53 PM EST
Nautical Twilight 6:13 AM EST 7:22 PM EST
Astronomical Twilight 5:44 AM EST 7:50 PM EST
Moon 6:37 PM EST (2/25) 6:38 AM EST (2/25)
Length of Visible Light 12h 11m
Length of Day
11h 22m
Full, 100% of the Moon is Illuminated
Feb 25
Full
Feb 25
Full
Mar 4
Last Quarter
Mar 11
New
Mar 19
First Quarter

Hourly Weather History & Observations

Time (EST) Temp. Windchill Dew Point Humidity Pressure Visibility Wind Dir Wind Speed Gust Speed Precip Events Conditions
12:53 AM 45.0 °F - 43.0 °F 93% 29.94 in 10.0 mi Calm Calm - N/A   Clear
1:53 AM 46.0 °F - 44.1 °F 93% 29.94 in 10.0 mi Calm Calm - N/A   Clear
2:53 AM 45.0 °F - 44.1 °F 97% 29.92 in 10.0 mi Calm Calm - N/A   Clear
3:53 AM 46.9 °F - 45.0 °F 93% 29.95 in 10.0 mi West 4.6 mph - N/A   Overcast
4:53 AM 46.9 °F - 45.0 °F 93% 29.94 in 10.0 mi Calm Calm - N/A   Mostly Cloudy
5:53 AM 48.0 °F - 42.1 °F 80% 29.94 in 10.0 mi Calm Calm - N/A   Overcast
6:53 AM 48.0 °F - 42.1 °F 80% 29.92 in 10.0 mi SE 9.2 mph - 0.00 in Rain Light Rain
7:53 AM 46.9 °F - 46.0 °F 97% 29.99 in 6.0 mi North 6.9 mph - 0.06 in Rain Light Rain
8:33 AM 48.2 °F - 46.4 °F 93% 29.99 in 7.0 mi ENE 5.8 mph - N/A Rain Light Rain
8:53 AM 48.9 °F - 46.9 °F 93% 30.00 in 6.0 mi NE 5.8 mph - 0.09 in Rain Light Rain
9:53 AM 48.9 °F - 48.0 °F 97% 30.01 in 9.0 mi Calm Calm - 0.08 in Rain Light Rain
10:16 AM 48.2 °F - 48.2 °F 100% 30.03 in 3.0 mi NNE 4.6 mph - 0.04 in Rain Rain
10:53 AM 48.0 °F - 46.9 °F 96% 30.03 in 6.0 mi NNE 10.4 mph - 0.10 in Rain Light Rain
11:53 AM 46.9 °F - 46.9 °F 100% 30.03 in 5.0 mi NE 5.8 mph - 0.09 in Rain Rain
12:25 PM 48.2 °F - 46.4 °F 93% 30.02 in 4.0 mi East 4.6 mph - 0.09 in Rain Rain
12:53 PM 48.0 °F - 46.9 °F 96% 30.00 in 4.0 mi East 6.9 mph - 0.13 in Rain Light Rain
1:31 PM 48.2 °F - 48.2 °F 100% 29.93 in 4.0 mi ESE 15.0 mph - 0.06 in Rain Light Rain
1:53 PM 48.9 °F - 48.0 °F 97% 29.90 in 6.0 mi SE 15.0 mph - 0.08 in Rain Light Rain
2:19 PM 50.0 °F - 48.2 °F 94% 29.89 in 10.0 mi ESE 15.0 mph 21.9 mph 0.00 in   Overcast
2:53 PM 51.1 °F - 50.0 °F 96% 29.88 in 10.0 mi East 11.5 mph - 0.00 in   Overcast
3:44 PM 48.2 °F - 48.2 °F 100% 29.89 in 10.0 mi ENE 11.5 mph - N/A   Overcast
3:53 PM 48.9 °F - 48.9 °F 100% 29.91 in 10.0 mi ENE 13.8 mph - N/A   Overcast
4:53 PM 46.9 °F - 46.0 °F 97% 29.90 in 8.0 mi ENE 12.7 mph 23.0 mph N/A   Overcast
5:53 PM 46.0 °F 41.0 °F 45.0 °F 96% 29.91 in 9.0 mi ENE 10.4 mph - N/A   Overcast
6:08 PM 46.4 °F 40.7 °F 44.6 °F 93% 29.91 in 10.0 mi East 12.7 mph - N/A   Overcast
6:53 PM 46.0 °F 40.6 °F 45.0 °F 96% 29.91 in 9.0 mi ENE 11.5 mph 20.7 mph N/A   Overcast
7:53 PM 46.0 °F 39.3 °F 45.0 °F 96% 29.90 in 6.0 mi East 16.1 mph - N/A   Overcast
8:53 PM 45.0 °F 38.9 °F 45.0 °F 100% 29.90 in 5.0 mi East 12.7 mph - N/A   Overcast
9:24 PM 44.6 °F 38.4 °F 44.6 °F 100% 29.89 in 2.5 mi East 12.7 mph - 0.00 in Rain Light Rain
9:51 PM 44.6 °F 37.4 °F 44.6 °F 100% 29.88 in 3.0 mi East 16.1 mph 24.2 mph 0.01 in   Overcast
9:53 PM 44.1 °F 36.5 °F 43.0 °F 96% 29.88 in 3.0 mi East 17.3 mph 24.2 mph 0.01 in   Overcast
10:03 PM 44.6 °F 38.1 °F 42.8 °F 93% 29.88 in 4.0 mi ENE 13.8 mph 23.0 mph N/A   Overcast
10:27 PM 44.6 °F 39.2 °F 44.6 °F 100% 29.88 in 3.0 mi East 10.4 mph - N/A   Overcast
10:35 PM 44.6 °F 37.8 °F 42.8 °F 93% 29.87 in 2.5 mi East 15.0 mph 21.9 mph 0.00 in Rain Light Rain
10:44 PM 42.8 °F 35.8 °F 42.8 °F 100% 29.87 in 3.0 mi East 13.8 mph - 0.01 in Rain Light Rain
10:53 PM 43.0 °F 36.0 °F 43.0 °F 100% 29.87 in 3.0 mi East 13.8 mph - 0.02 in Rain Rain
11:36 PM 42.8 °F 37.0 °F 42.8 °F 100% 29.89 in 4.0 mi East 10.4 mph - 0.09 in Rain Rain
11:53 PM 43.0 °F 37.7 °F 42.1 °F 97% 29.88 in 4.0 mi East 9.2 mph - 0.14 in Rain Rain